| time (UTC) | temp C | wind direction | speed KPH | gust KPH | rain 1hr cm | rain 24hr cm | rain mn cm | humidity % | barometer mb |
| 20260902012022 | 6 | 0.0 | 0.0 | 0.00 | 0.00 | 0.00 | 99 | 1007.4 | |
| 20260902011037 | 6 | 0.0 | 0.0 | 0.00 | 0.00 | 0.00 | 99 | 1007.3 | |
| 20260902010034 | 7 | 0.0 | 0.0 | 0.00 | 0.00 | 0.00 | 99 | 1007.4 | |
| 20260902005028 | 7 | 0.0 | 0.0 | 0.00 | 0.00 | 0.00 | 99 | 1007.3 | |
| 20260902004103 | 7 | 0.0 | 0.0 | 0.00 | 0.00 | 0.00 | 99 | 1007.4 | |
| 20260902003039 | 7 | 0.0 | 0.0 | 0.00 | 0.00 | 0.00 | 99 | 1007.4 | |
| 20260902002034 | 7 | 0.0 | 0.0 | 0.00 | 0.00 | 0.00 | 99 | 1007.4 | |
| 20260902001050 | 7 | 0.0 | 0.0 | 0.00 | 0.00 | 0.00 | 99 | 1007.4 | |
| 20260902000044 | 7 | 0.0 | 0.0 | 0.00 | 0.00 | 0.00 | 99 | 1007.4 | |
| 20260901235019 | 7 | 0.0 | 0.0 | 0.00 | 0.00 | 0.00 | 99 | 1007.6 | |
| 20260901234034 | 8 | 0.0 | 0.0 | 0.00 | 0.00 | 0.00 | 99 | 1007.6 | |
| 20260901233050 | 8 | 0.0 | 0.0 | 0.00 | 0.00 | 0.00 | 99 | 1007.5 | |
| 20260901232047 | 8 | 0.0 | 0.0 | 0.00 | 0.00 | 0.00 | 99 | 1007.7 | |
| 20260901231021 | 8 | 0.0 | 0.0 | 0.00 | 0.00 | 0.00 | 99 | 1007.6 | |
| 20260901230016 | 8 | 0.0 | 0.0 | 0.00 | 0.00 | 0.00 | 99 | 1007.7 | |
| 20260901225052 | 8 | 0.0 | 0.0 | 0.00 | 0.00 | 0.00 | 99 | 1007.7 | |
| 20260901224027 | 8 | 0.0 | 0.0 | 0.00 | 0.00 | 0.00 | 99 | 1007.7 | |
| 20260901223022 | 8 | 0.0 | 0.0 | 0.00 | 0.00 | 0.00 | 99 | 1007.8 | |
| 20260901222018 | 9 | 0.0 | 0.0 | 0.00 | 0.00 | 0.00 | 99 | 1007.8 | |
| 20260901221033 | 9 | 0.0 | 0.0 | 0.00 | 0.00 | 0.00 | 99 | 1007.8 | |
| 20260901220028 | 9 | 0.0 | 0.0 | 0.00 | 0.00 | 0.00 | 99 | 1007.9 | |
| 20260901215024 | 8 | 0.0 | 0.0 | 0.00 | 0.00 | 0.00 | 99 | 1007.9 | |
| 20260901214020 | 8 | 151 | 1.6 | 1.6 | 0.00 | 0.00 | 0.00 | 99 | 1007.9 |
| 20260901213035 | 8 | 0.0 | 0.0 | 0.00 | 0.00 | 0.00 | 99 | 1007.9 | |
| 20260901212030 | 9 | 0.0 | 0.0 | 0.00 | 0.00 | 0.00 | 99 | 1007.7 | |
| 20260901211027 | 8 | 0.0 | 0.0 | 0.00 | 0.00 | 0.00 | 99 | 1007.8 | |
| 20260901210023 | 9 | 0.0 | 0.0 | 0.00 | 0.00 | 0.00 | 99 | 1007.8 | |
| 20260901205018 | 10 | 0.0 | 0.0 | 0.00 | 0.00 | 0.00 | 99 | 1007.8 | |
| 20260901204033 | 10 | 0.0 | 0.0 | 0.00 | 0.00 | 0.00 | 99 | 1007.7 | |
| 20260901203029 | 10 | 0.0 | 0.0 | 0.00 | 0.00 | 0.00 | 99 | 1007.8 | |
| 20260901202024 | 10 | 0.0 | 0.0 | 0.00 | 0.00 | 0.00 | 98 | 1007.9 | |
| 20260901201019 | 10 | 0.0 | 0.0 | 0.00 | 0.00 | 0.00 | 99 | 1007.9 | |
| 20260901200034 | 10 | 0.0 | 0.0 | 0.00 | 0.00 | 0.00 | 98 | 1008.0 | |
| 20260901195030 | 10 | 0.0 | 0.0 | 0.00 | 0.00 | 0.00 | 98 | 1007.9 | |
| 20260901194026 | 11 | 0.0 | 0.0 | 0.00 | 0.00 | 0.00 | 98 | 1008.0 | |
| 20260901193021 | 11 | 0.0 | 0.0 | 0.00 | 0.00 | 0.00 | 97 | 1007.9 | |
| 20260901192016 | 11 | 0.0 | 0.0 | 0.00 | 0.00 | 0.00 | 96 | 1007.9 | |
| 20260901191032 | 11 | 0.0 | 0.0 | 0.00 | 0.00 | 0.00 | 95 | 1008.0 | |
| 20260901190047 | 12 | 0.0 | 0.0 | 0.00 | 0.00 | 0.00 | 93 | 1008.0 | |
| 20260901185023 | 12 | 0.0 | 0.0 | 0.00 | 0.00 | 0.00 | 93 | 1008.0 | |
| 20260901184018 | 12 | 0.0 | 0.0 | 0.00 | 0.00 | 0.00 | 92 | 1008.0 | |
| 20260901183114 | 13 | 0.0 | 0.0 | 0.00 | 0.00 | 0.00 | 91 | 1007.8 | |
| 20260901182028 | 13 | 0.0 | 0.0 | 0.00 | 0.00 | 0.00 | 88 | 1007.8 | |
| 20260901181023 | 14 | 0.0 | 0.0 | 0.00 | 0.00 | 0.00 | 85 | 1007.8 | |
| 20260901180019 | 15 | 0.0 | 0.0 | 0.00 | 0.00 | 0.00 | 82 | 1007.6 | |
| 20260901175034 | 16 | 0.0 | 0.0 | 0.00 | 0.00 | 0.00 | 75 | 1007.7 | |
| 20260901174029 | 16 | 192 | 0.0 | 1.6 | 0.00 | 0.00 | 0.00 | 75 | 1007.5 |
| 20260901173025 | 18 | 0.0 | 0.0 | 0.00 | 0.00 | 0.00 | 73 | 1007.7 | |
| 20260901172020 | 20 | 0.0 | 0.0 | 0.00 | 0.00 | 0.00 | 63 | 1007.6 | |
| 20260901171017 | 21 | 0.0 | 0.0 | 0.00 | 0.00 | 0.00 | 61 | 1007.6 | |
| 20260901170032 | 21 | 0.0 | 0.0 | 0.00 | 0.00 | 0.00 | 59 | 1007.5 | |
| 20260901165027 | 21 | 188 | 0.0 | 4.8 | 0.00 | 0.00 | 0.00 | 57 | 1007.6 |
| 20260901164023 | 20 | 202 | 0.0 | 3.2 | 0.00 | 0.00 | 0.00 | 56 | 1007.6 |
| 20260901163018 | 21 | 210 | 1.6 | 4.8 | 0.00 | 0.00 | 0.00 | 55 | 1007.5 |
| 20260901162033 | 21 | 221 | 1.6 | 4.8 | 0.00 | 0.00 | 0.00 | 54 | 1007.6 |
| 20260901161028 | 21 | 214 | 1.6 | 4.8 | 0.00 | 0.00 | 0.00 | 53 | 1007.6 |
| 20260901160044 | 21 | 231 | 3.2 | 6.4 | 0.00 | 0.00 | 0.00 | 51 | 1007.6 |
| 20260901155019 | 21 | 246 | 4.8 | 9.7 | 0.00 | 0.00 | 0.00 | 49 | 1007.7 |
| 20260901154035 | 21 | 248 | 6.4 | 9.7 | 0.00 | 0.00 | 0.00 | 50 | 1007.7 |
| 20260901153055 | 21 | 224 | 4.8 | 6.4 | 0.00 | 0.00 | 0.00 | 50 | 1007.8 |
| 20260901152025 | 22 | 244 | 4.8 | 9.7 | 0.00 | 0.00 | 0.00 | 49 | 1007.6 |
| 20260901151020 | 21 | 221 | 3.2 | 9.7 | 0.00 | 0.00 | 0.00 | 48 | 1007.8 |
| 20260901150016 | 22 | 233 | 3.2 | 6.4 | 0.00 | 0.00 | 0.00 | 47 | 1007.8 |
| 20260901145051 | 22 | 227 | 4.8 | 9.7 | 0.00 | 0.00 | 0.00 | 48 | 1007.8 |
| 20260901144026 | 21 | 240 | 4.8 | 11.3 | 0.00 | 0.00 | 0.00 | 49 | 1007.9 |
| 20260901143021 | 22 | 234 | 4.8 | 9.7 | 0.00 | 0.00 | 0.00 | 46 | 1007.9 |
| 20260901142016 | 22 | 222 | 1.6 | 4.8 | 0.00 | 0.00 | 0.00 | 44 | 1007.9 |
| 20260901141031 | 22 | 234 | 4.8 | 11.3 | 0.00 | 0.00 | 0.00 | 45 | 1008.0 |
| 20260901140027 | 21 | 243 | 4.8 | 9.7 | 0.00 | 0.00 | 0.00 | 47 | 1008.1 |
| 20260901135023 | 21 | 250 | 4.8 | 12.9 | 0.00 | 0.00 | 0.00 | 46 | 1008.1 |
| 20260901134058 | 22 | 196 | 1.6 | 3.2 | 0.00 | 0.00 | 0.00 | 46 | 1008.2 |
| 20260901133032 | 22 | 202 | 1.6 | 3.2 | 0.00 | 0.00 | 0.00 | 47 | 1008.2 |
| 20260901132028 | 21 | 217 | 3.2 | 6.4 | 0.00 | 0.00 | 0.00 | 48 | 1008.2 |
| 20260901131024 | 21 | 220 | 1.6 | 4.8 | 0.00 | 0.00 | 0.00 | 46 | 1008.3 |
| 20260901130018 | 21 | 229 | 1.6 | 9.7 | 0.00 | 0.00 | 0.00 | 48 | 1008.2 |
| 20260901125033 | 21 | 216 | 1.6 | 4.8 | 0.00 | 0.00 | 0.00 | 50 | 1008.3 |
| 20260901124029 | 21 | 236 | 3.2 | 6.4 | 0.00 | 0.00 | 0.00 | 49 | 1008.3 |
| 20260901123024 | 21 | 187 | 1.6 | 4.8 | 0.00 | 0.00 | 0.00 | 51 | 1008.4 |
| 20260901122019 | 20 | 141 | 1.6 | 3.2 | 0.00 | 0.00 | 0.00 | 53 | 1008.4 |
| 20260901121054 | 20 | 160 | 1.6 | 6.4 | 0.00 | 0.00 | 0.00 | 54 | 1008.4 |
| 20260901120030 | 20 | 141 | 1.6 | 4.8 | 0.00 | 0.00 | 0.00 | 53 | 1008.4 |
| 20260901115104 | 20 | 192 | 1.6 | 3.2 | 0.00 | 0.00 | 0.00 | 53 | 1008.5 |
| 20260901114020 | 20 | 181 | 0.0 | 1.6 | 0.00 | 0.00 | 0.00 | 51 | 1008.6 |
| 20260901113034 | 19 | 234 | 3.2 | 6.4 | 0.00 | 0.00 | 0.00 | 54 | 1008.6 |
| 20260901112030 | 18 | 191 | 1.6 | 4.8 | 0.00 | 0.00 | 0.00 | 55 | 1008.5 |
| 20260901111025 | 19 | 185 | 1.6 | 3.2 | 0.00 | 0.00 | 0.00 | 54 | 1008.6 |
| 20260901110020 | 18 | 226 | 3.2 | 6.4 | 0.00 | 0.00 | 0.00 | 55 | 1008.6 |
| 20260901105016 | 18 | 205 | 1.6 | 3.2 | 0.00 | 0.00 | 0.00 | 57 | 1008.6 |
| 20260901104031 | 18 | 236 | 3.2 | 6.4 | 0.00 | 0.00 | 0.00 | 60 | 1008.6 |
| 20260901103046 | 17 | 170 | 3.2 | 6.4 | 0.00 | 0.00 | 0.00 | 61 | 1008.7 |
| 20260901102021 | 17 | 215 | 1.6 | 4.8 | 0.00 | 0.00 | 0.00 | 61 | 1008.7 |
| 20260901101016 | 17 | 232 | 4.8 | 9.7 | 0.00 | 0.00 | 0.00 | 63 | 1008.6 |
| 20260901100031 | 17 | 201 | 1.6 | 6.4 | 0.00 | 0.00 | 0.00 | 64 | 1008.5 |
| 20260901095108 | 17 | 239 | 4.8 | 11.3 | 0.00 | 0.00 | 0.00 | 65 | 1008.5 |
| 20260901094022 | 17 | 232 | 4.8 | 9.7 | 0.00 | 0.00 | 0.00 | 65 | 1008.4 |
| 20260901093017 | 17 | 226 | 4.8 | 11.3 | 0.00 | 0.00 | 0.00 | 63 | 1008.5 |
| 20260901092033 | 17 | 242 | 3.2 | 6.4 | 0.00 | 0.00 | 0.00 | 60 | 1008.4 |
| 20260901091028 | 16 | 271 | 4.8 | 9.7 | 0.00 | 0.00 | 0.00 | 64 | 1008.5 |
| 20260901090023 | 16 | 243 | 4.8 | 11.3 | 0.00 | 0.00 | 0.00 | 65 | 1008.5 |
| 20260901085043 | 16 | 231 | 4.8 | 6.4 | 0.00 | 0.00 | 0.00 | 71 | 1008.5 |
| 20260901084034 | 15 | 244 | 3.2 | 9.7 | 0.00 | 0.00 | 0.00 | 67 | 1008.6 |
| 20260901083029 | 15 | 255 | 4.8 | 11.3 | 0.00 | 0.00 | 0.00 | 69 | 1008.5 |
| 20260901082024 | 15 | 244 | 4.8 | 12.9 | 0.00 | 0.00 | 0.00 | 72 | 1008.5 |
| 20260901081019 | 15 | 248 | 3.2 | 9.7 | 0.00 | 0.00 | 0.00 | 70 | 1008.5 |
| 20260901080035 | 15 | 192 | 1.6 | 4.8 | 0.00 | 0.00 | 0.00 | 71 | 1008.5 |
| 20260901075030 | 15 | 226 | 3.2 | 6.4 | 0.00 | 0.00 | 0.00 | 72 | 1008.4 |
| 20260901074025 | 15 | 227 | 3.2 | 9.7 | 0.00 | 0.00 | 0.00 | 71 | 1008.5 |
| 20260901073020 | 14 | 248 | 3.2 | 11.3 | 0.00 | 0.00 | 0.00 | 76 | 1008.4 |
| 20260901072035 | 15 | 255 | 3.2 | 9.7 | 0.00 | 0.00 | 0.00 | 73 | 1008.3 |
| 20260901071051 | 14 | 262 | 4.8 | 12.9 | 0.00 | 0.00 | 0.00 | 74 | 1008.4 |
| 20260901070026 | 14 | 233 | 4.8 | 9.7 | 0.00 | 0.00 | 0.00 | 76 | 1008.3 |
| 20260901065022 | 14 | 177 | 3.2 | 11.3 | 0.00 | 0.00 | 0.00 | 78 | 1008.2 |
| 20260901064016 | 13 | 237 | 4.8 | 14.5 | 0.00 | 0.00 | 0.00 | 81 | 1008.1 |
| 20260901063032 | 13 | 256 | 6.4 | 11.3 | 0.00 | 0.00 | 0.00 | 85 | 1008.0 |
| 20260901062027 | 12 | 223 | 3.2 | 6.4 | 0.00 | 0.00 | 0.00 | 87 | 1008.1 |
| 20260901061023 | 12 | 230 | 3.2 | 4.8 | 0.00 | 0.00 | 0.00 | 90 | 1008.0 |
| 20260901060018 | 12 | 245 | 3.2 | 6.4 | 0.00 | 0.00 | 0.00 | 90 | 1007.9 |
| 20260901055115 | 12 | 226 | 1.6 | 6.4 | 0.00 | 0.00 | 0.00 | 91 | 1007.9 |
| 20260901054028 | 12 | 209 | 1.6 | 6.4 | 0.00 | 0.00 | 0.00 | 92 | 1007.7 |
| 20260901053044 | 11 | 218 | 1.6 | 4.8 | 0.00 | 0.00 | 0.00 | 94 | 1007.9 |
| 20260901052019 | 11 | 239 | 1.6 | 4.8 | 0.00 | 0.00 | 0.00 | 94 | 1007.8 |
| 20260901051034 | 11 | 223 | 1.6 | 3.2 | 0.00 | 0.00 | 0.00 | 95 | 1007.9 |
| 20260901050029 | 11 | 222 | 1.6 | 4.8 | 0.00 | 0.00 | 0.00 | 96 | 1007.9 |
| 20260901044538 | 11 | 231 | 1.6 | 4.8 | 0.00 | 0.00 | 0.00 | 98 | 1007.7 |
| 20260901043533 | 11 | 207 | 0.0 | 1.6 | 0.00 | 0.00 | 0.00 | 98 | 1007.6 |
| 20260901042528 | 11 | 223 | 1.6 | 4.8 | 0.00 | 0.03 | 0.00 | 99 | 1007.7 |
| 20260901041523 | 11 | 192 | 0.0 | 1.6 | 0.00 | 0.03 | 0.00 | 99 | 1007.6 |
| 20260901040538 | 11 | 195 | 0.0 | 1.6 | 0.00 | 0.03 | 0.00 | 99 | 1007.5 |
| 20260901035533 | 11 | 195 | 0.0 | 1.6 | 0.00 | 0.03 | 0.00 | 98 | 1007.5 |
| 20260901034610 | 11 | 206 | 0.0 | 3.2 | 0.00 | 0.05 | 0.00 | 98 | 1007.4 |
| 20260901033523 | 12 | 204 | 1.6 | 3.2 | 0.00 | 0.05 | 0.00 | 98 | 1007.3 |
| 20260901032539 | 12 | 212 | 1.6 | 3.2 | 0.00 | 0.05 | 0.00 | 97 | 1007.3 |
| 20260901031534 | 12 | 209 | 1.6 | 3.2 | 0.00 | 0.08 | 0.00 | 95 | 1007.3 |
| 20260901030529 | 12 | 213 | 1.6 | 4.8 | 0.00 | 0.08 | 0.00 | 96 | 1007.3 |
| 20260901025526 | 12 | 212 | 1.6 | 4.8 | 0.00 | 0.10 | 0.00 | 98 | 1007.1 |
| 20260901024541 | 12 | 219 | 1.6 | 4.8 | 0.00 | 0.10 | 0.00 | 99 | 1007.0 |
| 20260901023516 | 12 | 201 | 0.0 | 1.6 | 0.00 | 0.13 | 0.00 | 99 | 1007.0 |
| 20260901022532 | 12 | 206 | 1.6 | 1.6 | 0.00 | 0.13 | 0.00 | 99 | 1006.9 |
| 20260901021527 | 12 | 0.0 | 0.0 | 0.00 | 0.13 | 0.00 | 99 | 1006.7 | |
| 20260901020542 | 13 | 211 | 1.6 | 3.2 | 0.00 | 0.13 | 0.00 | 99 | 1006.6 |
| 20260901015518 | 12 | 203 | 0.0 | 3.2 | 0.00 | 0.13 | 0.00 | 99 | 1006.6 |
| 20260901014533 | 12 | 202 | 0.0 | 1.6 | 0.00 | 0.13 | 0.00 | 99 | 1006.5 |
| 20260901013528 | 12 | 0.0 | 0.0 | 0.00 | 0.13 | 0.00 | 98 | 1006.3 |